Miscellaneous Local Product
Issued by NWS Hastings, NE

Home | Current Version | Previous Version | Graphics & Text | Print | Product List | Glossary On
Versions: 1 2 3 4 5 6 7 8 9 10 11 12 13 14 15 16 17 18 19 20 21 22 23 24 25 26 27 28 29 30 31 32 33 34 35 36 37 38 39 40 41 42 43 44 45 46 47 48 49 50
000
AXUS43 KGID 211202
MISGRI

GID CWA HOURLY WEATHER ROUNDUP
NATIONAL WEATHER SERVICE HASTINGS NE
700 AM CDT THU SEP 21 2017

NOTE: "FAIR" INDICATES FEW OR NO CLOUDS BELOW 12,000 FEET WITH NO
SIGNIFICANT WEATHER AND/OR OBSTRUCTIONS TO VISIBILITY.

...SOUTH CENTRAL NEBRASKA...

CITY           SKY/WX    TMP DP  RH WIND       PRES   REMARKS
GRAND ISLAND   CLEAR     51  51 100 E3        29.82S
HASTINGS       CLEAR     54  50  86 E3        29.82S
KEARNEY        CLEAR     51  49  92 NE5       29.82S
ORD            CLEAR     48  44  86 CALM      29.81F
YORK           CLEAR     59  57  94 E7        29.82S
AURORA         CLEAR     52  51  96 NE3       29.82S
LEXINGTON      CLEAR     50  46  87 SE3       29.81F
HOLDREGE       CLEAR     49  46  90 SE5       29.82R
HEBRON         CLEAR     60  58  91 CALM      29.81S

...NEBRASKA PANHANDLE...

CITY           SKY/WX    TMP DP  RH WIND       PRES   REMARKS
CHADRON        CLEAR     60  39  45 S25G39    29.65S
ALLIANCE       CLEAR     49  42  77 SE12      29.75F
SCOTTSBLUFF    CLEAR     48  38  68 SE10      29.74S
SIDNEY         CLOUDY    44  36  73 SE8       29.77F

...WESTERN AND NORTH CENTRAL NEBRASKA...

CITY           SKY/WX    TMP DP  RH WIND       PRES   REMARKS
VALENTINE      CLEAR     57  46  66 S14       29.79F
AINSWORTH      CLEAR     55  48  77 S12       29.82R
ONEILL         CLEAR     53  48  84 SE6       29.84S
BROKEN BOW     CLEAR     47  43  86 CALM      29.81F
IMPERIAL       CLEAR     48  42  80 SE8       29.78F
NORTH PLATTE   CLEAR     48  46  93 E8        29.81S
MCCOOK         CLEAR     48  46  93 E8        29.79F

...EASTERN NEBRASKA...

CITY           SKY/WX    TMP DP  RH WIND       PRES   REMARKS
NORFOLK        MOCLDY    57  52  83 E6        29.84F
SO SIOUX CITY  PTCLDY    57  53  86 E7        29.88S
TEKAMAH        MOCLDY    60  56  86 N5        29.86F
COLUMBUS       CLEAR     58  54  86 E8        29.84S
ALBION         CLEAR     56  51  82 E5        29.83F
OMAHA EPPLEY   PTCLDY    69  59  70 E6        29.85F
OFFUTT AFB     CLEAR     67  61  79 E7        29.85R
MILLARD        CLEAR     69  62  77 E6        29.85R
LINCOLN        CLEAR     61  56  83 NE6       29.84R
NEBRASKA CITY  CLEAR     66  66 100 SE5       29.85R
BEATRICE       CLEAR     69  66  90 SE5       29.82S
FALLS CITY     CLEAR     70  68  93 SE8       29.84R

...NORTHERN KANSAS...

CITY           SKY/WX    TMP DP  RH WIND       PRES   REMARKS
GOODLAND       CLEAR     54  43  66 S14       29.78F
HILL CITY      CLEAR     47  44  90 NW3       29.81S
NORTON         SUNNY     54  46  76 E5        29.79F
PHILLIPSBURG   CLEAR     50  48  93 CALM      29.81S
SMITH CENTER   CLEAR     55  54  94 SE3       29.81R
HAYS           CLEAR     52  49  89 W3        29.81S
RUSSELL        CLEAR     59  56  89 S9        29.79S
CONCORDIA      CLEAR     70  70 100 S12       29.80S
SALINA         CLEAR     76  70  82 S13       29.80S
TOPEKA         CLEAR     74  72  93 S5        29.85S



USA.gov is the U.S. government's official web portal to all federal, state and local government web resources and services.